GW6176 Weather Reports


Display with metric or nautical units.
time (UTC)temp
F
wind
direction
speed
MPH
gust
MPH
rain 1hr
in
rain 24hr
in
rain mn
in
humidity
%
barometer
mb
20260903001619 86 211 4.0 5.0 0.00 0.00 0.00 75 1015.2
20260903001119 86 210 4.0 9.0 0.00 0.00 0.00 74 1015.1
20260903000615 86 182 3.0 5.0 0.00 0.00 0.00 75 1015.1
20260903000114 86 185 4.0 6.0 0.00 0.00 0.00 74 1015.2
20260902235613 87 195 6.0 6.0 0.00 0.00 0.00 73 1015.2
20260902235108 87 195 6.0 6.0 0.00 0.00 0.00 72 1015.5
20260902234602 88 205 3.0 8.0 0.00 0.00 0.00 71 1015.4
20260902234101 88 241 0.0 5.0 0.00 0.00 0.00 71 1015.4
20260902233556 88 263 1.0 5.0 0.00 0.00 0.00 70 1015.4
20260902233056 89 217 6.0 6.0 0.00 0.00 0.00 69 1015.5
20260902232550 89 254 2.0 7.0 0.00 0.00 0.00 68 1015.5
20260902232049 89 228 4.0 11.0 0.00 0.00 0.00 68 1015.5
20260902231544 90 224 5.0 9.0 0.00 0.00 0.00 67 1015.7
20260902231039 90 211 3.0 11.0 0.00 0.00 0.00 66 1015.5
20260902230538 90 227 7.0 10.0 0.00 0.00 0.00 65 1015.3
20260902230037 90 199 1.0 9.0 0.00 0.00 0.00 66 1015.3
20260902225533 91 236 4.0 9.0 0.00 0.00 0.00 65 1015.4
20260902225032 91 230 6.0 9.0 0.00 0.00 0.00 64 1015.3
20260902224531 91 232 3.0 8.0 0.00 0.00 0.00 63 1015.3
20260902224027 91 238 7.0 8.0 0.00 0.00 0.00 62 1015.5
20260902223524 91 242 5.0 13.0 0.00 0.00 0.00 62 1015.5
20260902223022 92 266 4.0 5.0 0.00 0.00 0.00 62 1015.4
20260902222521 92 210 3.0 8.0 0.00 0.00 0.00 62 1015.5
20260902222021 92 220 6.0 9.0 0.00 0.00 0.00 63 1015.5
20260902221521 92 251 3.0 12.0 0.00 0.00 0.00 63 1015.5
20260902221016 92 223 4.0 10.0 0.00 0.00 0.00 62 1015.5
20260902220511 92 241 3.0 6.0 0.00 0.00 0.00 63 1015.5
20260902220005 92 276 3.0 6.0 0.00 0.00 0.00 61 1015.4
20260902215501 93 266 1.0 5.0 0.00 0.00 0.00 61 1015.5
20260902214957 92 206 3.0 7.0 0.00 0.00 0.00 61 1015.5
20260902214456 93 284 6.0 11.0 0.00 0.00 0.00 60 1015.3
20260902213955 93 217 5.0 10.0 0.00 0.00 0.00 61 1015.3
20260902213452 93 223 3.0 10.0 0.00 0.00 0.00 60 1015.3
20260902212950 93 273 4.0 13.0 0.00 0.00 0.00 58 1015.5
20260902212447 93 286 8.0 12.0 0.00 0.00 0.00 56 1015.5
20260902211942 93 252 3.0 9.0 0.00 0.00 0.00 59 1015.3
20260902211438 93 219 11.0 12.0 0.00 0.00 0.00 59 1015.5
20260902210933 93 247 4.0 12.0 0.00 0.00 0.00 59 1015.4
20260902210428 93 245 2.0 13.0 0.00 0.00 0.00 59 1015.8
20260902205926 93 202 5.0 5.0 0.00 0.00 0.00 60 1015.4
20260902205422 93 278 10.0 10.0 0.00 0.00 0.00 59 1015.5
20260902204917 93 242 2.0 15.0 0.00 0.00 0.00 58 1015.5
20260902204417 93 199 10.0 11.0 0.00 0.00 0.00 57 1015.8
20260902203913 93 277 8.0 10.0 0.00 0.00 0.00 57 1015.8
20260902203408 93 212 3.0 8.0 0.00 0.00 0.00 58 1015.9
20260902202907 93 237 6.0 9.0 0.00 0.00 0.00 57 1015.9
20260902202403 93 235 5.0 12.0 0.00 0.00 0.00 56 1016.0
20260902201859 92 225 13.0 17.0 0.00 0.00 0.00 56 1016.1
20260902201359 92 179 6.0 15.0 0.00 0.00 0.00 60 1015.9
20260902200854 92 249 4.0 12.0 0.00 0.00 0.00 61 1015.9
20260902200355 92 222 10.0 16.0 0.00 0.00 0.00 58 1016.0
20260902195850 92 204 10.0 16.0 0.00 0.00 0.00 58 1016.0
20260902195350 92 185 7.0 16.0 0.00 0.00 0.00 59 1016.2
20260902194845 92 201 13.0 18.0 0.00 0.00 0.00 56 1016.1
20260902194345 92 193 11.0 11.0 0.00 0.00 0.00 58 1016.0
20260902193840 92 201 9.0 14.0 0.00 0.00 0.00 58 1016.2
20260902193336 92 254 9.0 17.0 0.00 0.00 0.00 59 1016.2
20260902192835 92 215 11.0 14.0 0.00 0.00 0.00 59 1016.3
20260902192334 92 181 6.0 11.0 0.00 0.00 0.00 59 1016.4
20260902191833 92 236 6.0 14.0 0.00 0.00 0.00 57 1016.2
20260902191329 92 208 11.0 14.0 0.00 0.00 0.00 60 1016.4
20260902190824 92 180 7.0 14.0 0.00 0.00 0.00 58 1016.6
20260902190323 92 157 11.0 13.0 0.00 0.00 0.00 58 1016.5
20260902185820 92 194 3.0 10.0 0.00 0.00 0.00 60 1016.5
20260902185317 92 192 7.0 14.0 0.00 0.00 0.00 59 1016.4
20260902184811 92 227 10.0 12.0 0.00 0.00 0.00 61 1016.4
20260902184306 92 185 14.0 15.0 0.00 0.00 0.00 58 1016.4
20260902183801 92 198 9.0 11.0 0.00 0.00 0.00 59 1016.4
20260902183258 92 184 6.0 12.0 0.00 0.00 0.00 59 1016.5
20260902182753 91 190 6.0 11.0 0.00 0.00 0.00 59 1016.5
20260902182250 92 218 9.0 11.0 0.00 0.00 0.00 61 1016.7
20260902181746 92 217 6.0 10.0 0.00 0.00 0.00 59 1016.7
20260902181245 92 233 6.0 11.0 0.00 0.00 0.00 60 1016.8
20260902180740 91 182 5.0 8.0 0.00 0.00 0.00 60 1016.8
20260902180236 92 188 9.0 10.0 0.00 0.00 0.00 59 1016.8
20260902175731 91 221 11.0 12.0 0.00 0.00 0.00 58 1017.0
20260902175226 91 186 8.0 13.0 0.00 0.00 0.00 60 1017.1
20260902174722 91 227 10.0 13.0 0.00 0.00 0.00 57 1017.0
20260902174218 91 228 6.0 10.0 0.00 0.00 0.00 60 1017.0
20260902173714 92 195 9.0 11.0 0.00 0.00 0.00 60 1017.3
20260902173208 92 181 5.0 10.0 0.00 0.00 0.00 60 1017.2
20260902172708 91 234 4.0 8.0 0.00 0.00 0.00 59 1017.2
20260902172207 91 313 3.0 7.0 0.00 0.00 0.00 59 1017.4
20260902171703 90 183 6.0 12.0 0.00 0.00 0.00 59 1017.3
20260902171158 91 209 7.0 11.0 0.00 0.00 0.00 62 1017.4
20260902170654 90 224 3.0 11.0 0.00 0.00 0.00 64 1017.3
20260902170149 91 230 7.0 9.0 0.00 0.00 0.00 60 1017.3
20260902165645 91 267 1.0 5.0 0.00 0.00 0.00 62 1017.4
20260902165144 90 236 6.0 8.0 0.00 0.00 0.00 63 1017.4
20260902164639 89 258 4.0 11.0 0.00 0.00 0.00 63 1017.6
20260902164138 89 206 8.0 13.0 0.00 0.00 0.00 62 1017.6
20260902163633 90 217 6.0 9.0 0.00 0.00 0.00 65 1017.6
20260902163133 89 237 2.0 9.0 0.00 0.00 0.00 65 1017.4
20260902162631 90 232 6.0 8.0 0.00 0.00 0.00 65 1017.6
20260902162126 90 290 2.0 7.0 0.00 0.00 0.00 65 1017.7
20260902161621 90 231 5.0 7.0 0.00 0.00 0.00 66 1017.7
20260902161118 89 238 6.0 8.0 0.00 0.00 0.00 66 1018.1
20260902160614 88 240 4.0 12.0 0.00 0.00 0.00 65 1017.7
20260902160109 88 217 3.0 10.0 0.00 0.00 0.00 66 1017.8
20260902155607 88 202 8.0 11.0 0.00 0.00 0.00 67 1017.8
20260902155106 88 236 3.0 11.0 0.00 0.00 0.00 67 1017.9
20260902154601 88 214 8.0 11.0 0.00 0.00 0.00 65 1017.8
20260902154056 88 218 4.0 9.0 0.00 0.00 0.00 67 1018.0
20260902153554 88 239 7.0 10.0 0.00 0.00 0.00 66 1018.2
20260902153050 87 256 3.0 9.0 0.00 0.00 0.00 68 1017.9
20260902152547 87 218 4.0 7.0 0.00 0.00 0.00 68 1017.7
20260902152041 87 253 7.0 9.0 0.00 0.00 0.00 67 1017.8
20260902151537 87 246 5.0 7.0 0.00 0.00 0.00 68 1017.7
20260902151036 87 219 9.0 10.0 0.00 0.00 0.00 67 1017.9
20260902150532 86 249 6.0 8.0 0.00 0.00 0.00 68 1017.8
20260902150027 86 237 7.0 11.0 0.00 0.00 0.00 70 1017.9
20260902145523 86 229 5.0 9.0 0.00 0.00 0.00 69 1018.0
20260902145022 86 216 4.0 10.0 0.00 0.00 0.00 69 1017.8
20260902144519 85 288 4.0 11.0 0.00 0.00 0.00 70 1017.8
20260902144019 86 302 3.0 7.0 0.00 0.00 0.00 71 1017.8
20260902143514 85 237 3.0 8.0 0.00 0.00 0.00 69 1017.7
20260902143010 85 247 5.0 9.0 0.00 0.00 0.00 69 1017.7
20260902142505 85 219 7.0 12.0 0.00 0.00 0.00 69 1017.8
20260902142000 84 269 1.0 10.0 0.00 0.00 0.00 71 1017.7
20260902141455 84 242 4.0 8.0 0.00 0.00 0.00 70 1017.5
20260902140955 83 202 2.0 11.0 0.00 0.00 0.00 71 1017.6
20260902140451 84 239 5.0 11.0 0.00 0.00 0.00 71 1017.6
20260902135950 83 251 1.0 10.0 0.00 0.00 0.00 71 1017.5
20260902135446 83 210 7.0 9.0 0.00 0.00 0.00 71 1017.6
20260902134945 83 341 0.0 10.0 0.00 0.00 0.00 72 1017.7
20260902134442 82 222 7.0 13.0 0.00 0.00 0.00 72 1017.8
20260902133941 82 233 6.0 9.0 0.00 0.00 0.00 72 1017.8
20260902133436 82 237 9.0 9.0 0.00 0.00 0.00 73 1017.8
20260902132931 82 248 7.0 8.0 0.00 0.00 0.00 74 1017.7
20260902132426 81 226 5.0 8.0 0.00 0.00 0.00 76 1017.8
20260902131921 81 240 3.0 11.0 0.00 0.00 0.00 76 1017.9
20260902131418 80 259 6.0 9.0 0.00 0.00 0.00 78 1018.0
20260902130917 80 226 6.0 10.0 0.00 0.00 0.00 78 1017.8
20260902130414 80 211 5.0 9.0 0.00 0.00 0.00 79 1017.8
20260902125908 79 229 6.0 8.0 0.00 0.00 0.00 80 1017.9
20260902125405 78 204 6.0 6.0 0.00 0.00 0.00 82 1018.0
20260902124900 78 215 4.0 7.0 0.00 0.00 0.00 83 1017.9
20260902124356 78 214 4.0 6.0 0.00 0.00 0.00 83 1017.7
20260902123851 77 224 6.0 9.0 0.00 0.00 0.00 84 1017.8
20260902123347 77 221 6.0 9.0 0.00 0.00 0.00 84 1018.0
20260902122845 77 226 4.0 8.0 0.00 0.00 0.00 85 1017.8
20260902122342 76 201 3.0 7.0 0.00 0.00 0.00 86 1017.9
20260902121841 76 226 6.0 6.0 0.00 0.00 0.00 87 1018.0
20260902121337 75 206 4.0 6.0 0.00 0.00 0.00 88 1018.0
20260902120832 75 212 3.0 6.0 0.00 0.00 0.00 89 1018.1
20260902120329 75 202 2.0 8.0 0.00 0.00 0.00 89 1018.0
20260902115828 75 224 2.0 7.0 0.00 0.00 0.00 90 1018.0
20260902115325 75 174 2.0 5.0 0.00 0.00 0.00 90 1017.9
20260902114821 74 201 3.0 4.0 0.00 0.00 0.00 91 1017.9
20260902114317 74 217 3.0 6.0 0.00 0.00 0.00 92 1017.9
20260902113816 74 221 2.0 3.0 0.00 0.00 0.00 92 1017.9
20260902113312 73 200 2.0 4.0 0.00 0.00 0.00 93 1017.8
20260902112811 73 226 2.0 3.0 0.00 0.00 0.00 93 1017.7
20260902112308 73 192 1.0 2.0 0.00 0.00 0.00 93 1017.6
20260902111803 73 205 0.0 2.0 0.00 0.00 0.00 93 1017.8
20260902111300 73 207 2.0 3.0 0.00 0.00 0.00 94 1017.7
20260902110755 73 181 1.0 2.0 0.00 0.00 0.00 94 1017.5
20260902110251 73 219 2.0 3.0 0.00 0.00 0.00 93 1017.6
20260902105750 73 234 0.0 2.0 0.00 0.00 0.00 93 1017.5
20260902105246 73 194 1.0 3.0 0.00 0.00 0.00 94 1017.5
20260902104741 73 189 2.0 2.0 0.00 0.00 0.00 94 1017.5
20260902104237 73 202 2.0 3.0 0.00 0.00 0.00 93 1017.5
20260902103736 73 198 3.0 3.0 0.00 0.00 0.00 93 1017.4
20260902103231 73 191 1.0 3.0 0.00 0.00 0.00 93 1017.4
20260902102727 73 219 2.0 3.0 0.00 0.00 0.00 93 1017.3
20260902102224 73 193 1.0 2.0 0.00 0.00 0.00 93 1017.3
20260902101719 73 213 2.0 2.0 0.00 0.00 0.00 93 1017.3
20260902101214 74 207 1.0 2.0 0.00 0.00 0.00 93 1017.2
20260902100713 74 171 2.0 2.0 0.00 0.00 0.00 93 1017.0
20260902100208 74 177 1.0 3.0 0.00 0.00 0.00 92 1017.2
20260902095708 74 215 1.0 3.0 0.00 0.00 0.00 92 1017.2
20260902095202 74 215 2.0 2.0 0.00 0.00 0.00 92 1017.2
20260902094657 74 203 1.0 3.0 0.00 0.00 0.00 92 1017.1
20260902094153 74 216 2.0 3.0 0.00 0.00 0.00 93 1016.9
20260902093652 74 191 2.0 4.0 0.00 0.00 0.00 93 1017.1
20260902093148 74 199 2.0 3.0 0.00 0.00 0.00 93 1016.9
20260902092643 74 216 1.0 2.0 0.00 0.00 0.00 93 1017.0
20260902092143 74 206 1.0 2.0 0.00 0.00 0.00 93 1017.1
20260902091637 74 208 2.0 3.0 0.00 0.00 0.00 93 1017.1
20260902091134 74 214 2.0 2.0 0.00 0.00 0.00 93 1017.0
20260902090630 75 190 1.0 2.0 0.00 0.00 0.00 92 1017.0
20260902090128 75 204 2.0 2.0 0.00 0.00 0.00 92 1017.0
20260902085624 75 203 2.0 3.0 0.00 0.00 0.00 92 1016.8
20260902085119 75 183 2.0 4.0 0.00 0.00 0.00 92 1016.7
20260902084615 75 191 2.0 3.0 0.00 0.00 0.00 91 1016.8
20260902084110 75 205 3.0 4.0 0.00 0.00 0.00 91 1016.9
20260902083606 76 235 2.0 3.0 0.00 0.00 0.00 91 1016.9
20260902083105 76 263 2.0 2.0 0.00 0.00 0.00 90 1016.9
20260902082601 76 183 0.0 3.0 0.00 0.00 0.00 90 1017.2
20260902082057 76 226 2.0 2.0 0.00 0.00 0.00 89 1017.1
20260902081554 77 243 2.0 3.0 0.00 0.00 0.00 89 1016.9
20260902081053 77 258 2.0 4.0 0.00 0.00 0.00 89 1017.0
20260902080553 77 269 2.0 4.0 0.00 0.00 0.00 89 1016.9
20260902080050 77 303 1.0 5.0 0.00 0.00 0.00 90 1016.9
20260902075550 77 192 2.0 5.0 0.00 0.00 0.00 90 1016.8
20260902075046 77 223 2.0 6.0 0.00 0.00 0.00 90 1017.1
20260902074541 77 208 5.0 6.0 0.00 0.00 0.00 90 1016.9
20260902074036 77 206 2.0 5.0 0.00 0.00 0.00 90 1016.9
20260902073531 77 220 3.0 4.0 0.00 0.00 0.00 90 1016.9
20260902073028 77 186 2.0 6.0 0.00 0.00 0.00 90 1017.0
20260902072523 77 239 0.0 3.0 0.00 0.00 0.00 90 1016.7
20260902072020 77 188 2.0 5.0 0.00 0.00 0.00 90 1017.0
20260902071519 77 229 2.0 3.0 0.00 0.00 0.00 90 1016.9
20260902071016 77 183 2.0 4.0 0.00 0.00 0.00 91 1016.9
20260902070511 77 214 1.0 3.0 0.00 0.00 0.00 91 1016.8
20260902070011 76 232 3.0 5.0 0.00 0.00 0.00 91 1016.8
20260902065505 76 190 2.0 4.0 0.00 0.00 0.00 91 1016.7
20260902065000 76 187 2.0 4.0 0.00 0.00 0.00 91 1016.8
20260902064456 76 196 0.0 2.0 0.00 0.00 0.00 91 1016.8
20260902063952 76 199 0.0 2.0 0.00 0.00 0.00 91 1016.8
20260902063451 77 193 1.0 2.0 0.00 0.00 0.00 90 1016.7
20260902062947 77 171 0.0 2.0 0.00 0.00 0.00 90 1016.8
20260902062445 77 200 2.0 2.0 0.00 0.00 0.00 90 1016.8
20260902061940 77 195 0.0 0.0 0.00 0.00 0.00 89 1016.8
20260902061435 77 188 1.0 2.0 0.00 0.00 0.00 89 1016.9
20260902060932 77 187 1.0 2.0 0.00 0.00 0.00 89 1017.0
20260902060427 77 209 2.0 2.0 0.00 0.00 0.00 88 1016.8
20260902055923 78 206 2.0 2.0 0.00 0.00 0.00 88 1017.1
20260902055419 78 180 1.0 2.0 0.00 0.00 0.00 88 1017.0
20260902054914 78 231 0.0 2.0 0.00 0.00 0.00 87 1017.1
20260902054409 78 199 0.0 2.0 0.00 0.00 0.00 87 1016.9
20260902053904 78 199 2.0 2.0 0.00 0.00 0.00 86 1017.0
20260902053400 79 216 1.0 2.0 0.00 0.00 0.00 86 1016.9
20260902052859 79 228 0.0 3.0 0.00 0.00 0.00 86 1017.0
20260902052354 79 227 1.0 1.0 0.00 0.00 0.00 86 1016.8
20260902051849 79 209 2.0 3.0 0.00 0.00 0.00 86 1017.0
20260902051344 79 227 2.0 3.0 0.00 0.00 0.00 86 1017.1
20260902050843 79 277 2.0 3.0 0.00 0.00 0.00 87 1017.0
20260902050342 79 267 2.0 4.0 0.00 0.00 0.00 87 1017.1
20260902045838 79 284 1.0 3.0 0.00 0.00 0.00 87 1017.0
20260902045334 79 241 3.0 4.0 0.00 0.00 0.00 86 1016.9
20260902044830 79 198 3.0 4.0 0.00 0.00 0.00 86 1016.9
20260902044325 80 197 4.0 5.0 0.00 0.00 0.00 86 1016.7
20260902043826 80 222 7.0 8.0 0.00 0.00 0.00 86 1016.8
20260902043321 80 236 2.0 5.0 0.00 0.00 0.00 86 1017.1
20260902042820 79 225 7.0 8.0 0.00 0.00 0.00 87 1016.9
20260902042315 80 217 0.0 4.0 0.00 0.00 0.00 86 1016.7
20260902041810 80 205 2.0 5.0 0.00 0.00 0.00 86 1016.7
20260902041310 80 225 3.0 6.0 0.00 0.00 0.00 86 1016.8
20260902040809 80 210 5.0 5.0 0.00 0.00 0.00 86 1016.9
20260902040305 80 209 3.0 4.0 0.00 0.00 0.00 86 1016.8
20260902035803 80 206 2.0 6.0 0.00 0.09 0.09 86 1016.8
20260902035259 80 194 2.0 4.0 0.00 0.09 0.09 86 1016.9
20260902034757 80 208 4.0 5.0 0.00 0.09 0.09 86 1016.9
20260902034253 80 190 2.0 5.0 0.00 0.09 0.09 86 1016.8
20260902033750 80 189 2.0 4.0 0.00 0.09 0.09 86 1016.8
20260902033246 80 183 3.0 4.0 0.00 0.09 0.09 86 1016.7
20260902032745 80 198 3.0 5.0 0.00 0.09 0.09 86 1016.8
20260902032240 80 195 2.0 4.0 0.00 0.09 0.09 86 1016.7
20260902031740 80 207 2.0 3.0 0.00 0.09 0.09 86 1016.9
20260902031235 80 194 3.0 4.0 0.00 0.09 0.09 86 1016.9
20260902030731 80 203 2.0 5.0 0.00 0.09 0.09 86 1016.8
20260902030231 80 184 2.0 4.0 0.00 0.09 0.09 86 1016.7
20260902025730 80 187 2.0 4.0 0.00 0.09 0.09 86 1016.8
20260902025225 81 216 2.0 3.0 0.00 0.09 0.09 86 1016.8
20260902024721 81 196 2.0 3.0 0.00 0.09 0.09 86 1016.5
20260902024216 81 173 3.0 4.0 0.00 0.09 0.09 86 1016.7
20260902023711 81 204 3.0 4.0 0.00 0.09 0.09 87 1016.8
20260902023207 81 187 2.0 3.0 0.00 0.09 0.09 87 1016.9
20260902022706 81 199 2.0 3.0 0.00 0.09 0.09 86 1017.0
20260902022202 81 220 2.0 3.0 0.00 0.09 0.09 87 1017.0
20260902021658 81 189 2.0 3.0 0.00 0.09 0.09 87 1016.8
20260902021157 81 208 2.0 3.0 0.00 0.09 0.09 88 1016.8
20260902020653 80 199 2.0 3.0 0.00 0.09 0.09 88 1016.9
20260902020149 80 199 2.0 3.0 0.00 0.09 0.09 88 1016.7
20260902015644 80 184 2.0 2.0 0.00 0.09 0.09 89 1016.8
20260902015141 80 200 1.0 3.0 0.00 0.09 0.09 89 1016.6
20260902014636 80 194 1.0 2.0 0.00 0.09 0.09 89 1016.7
20260902014132 80 191 1.0 2.0 0.00 0.09 0.09 89 1016.7
20260902013631 80 154 0.0 1.0 0.00 0.09 0.09 89 1016.8
20260902013127 80 242 0.0 0.0 0.00 0.09 0.09 89 1016.9
20260902012622 80 75 0.0 0.0 0.00 0.09 0.09 88 1016.9
20260902012118 81 230 0.0 0.0 0.00 0.09 0.09 88 1016.9
20260902011614 81 205 0.0 0.0 0.00 0.09 0.09 88 1016.6
20260902011113 81 184 0.0 1.0 0.00 0.09 0.09 87 1016.6
20260902010612 81 205 0.0 1.0 0.00 0.09 0.09 87 1016.6
20260902010108 81 154 0.0 1.0 0.00 0.09 0.09 86 1016.5
20260902005605 82 190 0.0 1.0 0.00 0.09 0.09 86 1016.6
20260902005102 82 154 0.0 0.0 0.00 0.09 0.09 85 1016.6
20260902004601 82 297 0.0 0.0 0.00 0.09 0.09 84 1016.6
20260902004056 83 217 0.0 2.0 0.00 0.09 0.09 84 1016.6
20260902003552 82 199 1.0 2.0 0.00 0.09 0.09 84 1016.4
20260902003047 82 174 0.0 2.0 0.00 0.09 0.09 84 1016.5
20260902002544 83 184 1.0 2.0 0.00 0.09 0.09 83 1016.4
20260902002043 83 208 1.0 2.0 0.00 0.09 0.09 83 1016.5